Regional Weather Roundup
Issued by NWS

Home | Current Version | Previous Version | Text Only | Print | Product List | Glossary Off
Versions: 1 2 3 4 5 6 7 8 9 10 11 12 13 14 15 16 17 18 19 20 21 22 23 24 25 26 27 28 29 30 31 32 33 34 35 36 37 38 39 40 41 42 43 44 45 46 47 48 49 50

000
ASUS43 KLSX 180907
RWRMO

WEATHER SUMMARY FOR MISSOURI
NATIONAL WEATHER SERVICE SPRINGFIELD MO
300 AM CST THU DEC 18 2014

NOTE: "FAIR" INDICATES FEW OR NO CLOUDS BELOW 12,000 FEET WITH NO
       SIGNIFICANT WEATHER AND/OR OBSTRUCTIONS TO VISIBILITY.
       CURRENT SKY AND/OR WEATHER CONDITIONS ARE NOT AVAILABLE FOR
       CHILLICOTHE AND FARMINGTON.

MOZ001>031-035>038-043-044-053-054-181000-
...NORTHERN AND WESTERN MISSOURI...

CITY           SKY/WX    TMP DP  RH WIND       PRES   REMARKS
KANSAS CTY INT LGT SNOW  28  26  92 E7        30.22S VSB 1   WCI  21
KANSAS C DTWN  LGT SNOW  29  26  89 E8        30.24S FOG     WCI  21
LEE`S SUMMIT   LGT SNOW  28  26  92 E7        30.23S FOG     WCI  21
ST JOSEPH      LGT SNOW  28  26  92 E3        30.25S VSB 3/4
CHILLICOTHE      N/A     30  21  69 E5        30.28R WCI  25
KIRKSVILLE     CLOUDY    26  21  81 E7        30.27S WCI  18

$$
MOZ066>068-077>081-088>096-101>105-181000-
...SOUTHWEST MISSOURI...

CITY           SKY/WX    TMP DP  RH WIND       PRES   REMARKS
SPRINGFIELD    CLOUDY    33  31  92 SE6       30.16F WCI  28
JOPLIN         LGT RAIN  34  33  96 NE5       30.19S FOG     WCI  30

$$
MOZ032>034-039>042-045>050-055>058-069>072-181000-
...CENTRAL MISSOURI...

CITY           SKY/WX    TMP DP  RH WIND       PRES   REMARKS
COLUMBIA       LGT SNOW  30  27  88 NE8       30.25F FOG     WCI  22
JEFFERSON CITY FLURRIES  32  27  81 NE5       30.27F WCI  27
ROLLA          LGT SNOW  30  28  92 E6        30.22S FOG     WCI  24
SEDALIA        LGT SNOW  31  28  89 E3        30.24S FOG
WHITEMAN AFB   LGT SNOW  29  28  93 NE6       30.23S FOG     WCI  23
WARRENSBURG    LGT SNOW  30  28  93 NE3       30.24S
OSAGE BEACH    CLOUDY    30  28  93 NE6       30.23S WCI  24

$$
MOZ051-052-059>065-181000-
...EAST CENTRAL MISSOURI...

CITY           SKY/WX    TMP DP  RH WIND       PRES   REMARKS
ST LOUIS INTL  CLOUDY    31  24  75 E5        30.29R WCI  26
SPIRIT OF STL  CLOUDY   N/A N/A N/A N3        30.29R
ST CHARLES     CLOUDY    29  23  78 E3        30.30R

$$
MOZ072>076-082>087-097>100-106>115-181000-
...SOUTH CENTRAL AND SOUTHEAST MISSOURI...

CITY           SKY/WX    TMP DP  RH WIND       PRES   REMARKS
CAPE GIRARDEAU MIX PCPN  33  32  96 SE3       30.26F FOG
FARMINGTON     CLOUDY    32  30  93 CALM      30.25F
POPLAR BLUFF   CLOUDY    34  31  88 N5        30.26F FOG     WCI  30
WEST PLAINS    CLOUDY    33  31  92 SE6       30.21S FOG     WCI  28

$$



USA.gov is the U.S. government's official web portal to all federal, state and local government web resources and services.